Tokyo, Japan

12:19 PM JST on October 23, 2018 (GMT +0900)
Tokyo (Haneda) International

Weather History for RJTT - October, 2018

Change the Weather History Date:

Thursday, October 11, 2018

  Actual Average Record
Temperature  
Mean Temperature 72 °F -  
Max Temperature 75 °F 65 °F 84 °F (2013)
Min Temperature 69 °F 55 °F 59 °F (2002)
Cooling Degree Days 7    
Growing Degree Days 22 (Base 50)    
Moisture  
Dew Point 69 °F    
Average Humidity 88    
Maximum Humidity 94    
Minimum Humidity 83    
Precipitation  
Precipitation 0.00 in - - ()
Sea Level Pressure  
Sea Level Pressure 29.92 in    
Wind  
Wind Speed 7 mph ()    
Max Wind Speed 12 mph    
Max Gust Speed -    
Visibility 5.8 miles    
Events Rain , Thunderstorm    
Averages and records for this station are not official NWS values.
T = Trace of Precipitation, MM = Missing Value Source: Averaged Metar Reports

Daily Weather History Graph

Daily Weather History Graph

Search for Another Location

Airport or City:

Astronomy

Oct. 11, 2018 Rise Set
Actual Time 5:43 AM JST 5:11 PM JST
Civil Twilight 5:17 AM JST 5:37 PM JST
Nautical Twilight 4:48 AM JST 6:06 PM JST
Astronomical Twilight 4:18 AM JST 6:36 PM JST
Moon 7:31 AM JST (10/11) 6:47 PM JST (10/11)
Length of Visible Light 12h 19m
Length of Day
11h 28m
Waxing Crescent, 5% of the Moon is Illuminated
Oct 11
Waxing Crescent
Oct 17
First Quarter
Oct 25
Full
Nov 1
Last Quarter
Nov 8
New

Hourly Weather History & Observations

Time (JST) Temp. Dew Point Humidity Pressure Visibility Wind Dir Wind Speed Gust Speed Precip Events Conditions
12:00 AM 71.6 °F 68.0 °F 88% 29.98 in 6.2 mi ENE 9.2 mph - N/A Rain Light Rain Showers
12:10 AM 71.6 °F 68.0 °F 88% 29.95 in 6.2 mi NE 9.2 mph - N/A Rain , Thunderstorm Light Thunderstorms and Rain
12:19 AM 71.6 °F 68.0 °F 88% 29.95 in 6.2 mi ENE 8.1 mph - N/A Rain Light Rain Showers
12:30 AM 71.6 °F 68.0 °F 88% 29.95 in 6.2 mi ENE 9.2 mph - N/A Rain Light Rain Showers
1:00 AM 71.6 °F 68.0 °F 88% 29.95 in 6.2 mi NE 9.2 mph - N/A Rain Light Rain Showers
1:13 AM 71.6 °F 68.0 °F 88% 29.95 in 6.2 mi North 6.9 mph - N/A Rain Light Rain Showers
1:30 AM 71.6 °F 68.0 °F 88% 29.98 in 6.2 mi North 4.6 mph - N/A Rain Light Rain Showers
2:00 AM 71.6 °F 68.0 °F 88% 29.98 in 6.2 mi North 8.1 mph - N/A   Mostly Cloudy
2:30 AM 71.6 °F 68.0 °F 88% 29.95 in 6.2 mi North 8.1 mph - N/A Rain Light Rain
3:00 AM 71.6 °F 69.8 °F 94% 29.95 in 6.2 mi North 8.1 mph - N/A Rain Light Rain
3:30 AM 71.6 °F 68.0 °F 88% 29.95 in 6.2 mi North 8.1 mph - N/A   Mostly Cloudy
4:00 AM 71.6 °F 68.0 °F 88% 29.95 in 6.2 mi North 9.2 mph - N/A   Mostly Cloudy
4:30 AM 71.6 °F 68.0 °F 88% 29.95 in 6.2 mi North 10.4 mph - N/A   Mostly Cloudy
5:00 AM 71.6 °F 68.0 °F 88% 29.95 in 6.2 mi North 10.4 mph - N/A   Mostly Cloudy
5:30 AM 69.8 °F 68.0 °F 94% 29.95 in 6.2 mi North 11.5 mph - N/A   Mostly Cloudy
6:00 AM 69.8 °F 66.2 °F 88% 29.95 in 6.2 mi NNE 10.4 mph - N/A   Mostly Cloudy
6:30 AM 69.8 °F 68.0 °F 94% 29.95 in 6.2 mi NNE 8.1 mph - N/A   Mostly Cloudy
7:00 AM 69.8 °F 68.0 °F 94% 29.95 in 6.2 mi NNE 10.4 mph - N/A   Mostly Cloudy
7:30 AM 71.6 °F 68.0 °F 88% 29.95 in 6.2 mi North 9.2 mph - N/A   Mostly Cloudy
8:00 AM 71.6 °F 68.0 °F 88% 29.95 in 6.2 mi North 10.4 mph - N/A Rain Light Rain
8:30 AM 69.8 °F 68.0 °F 94% 29.95 in 6.2 mi North 6.9 mph - N/A Rain Light Rain
9:00 AM 69.8 °F 66.2 °F 88% 29.95 in 5.0 mi North 8.1 mph - N/A Rain Light Rain
9:30 AM 71.6 °F 66.2 °F 83% 29.95 in 5.0 mi North 9.2 mph - N/A   Mostly Cloudy
10:00 AM 71.6 °F 68.0 °F 88% 29.95 in 6.2 mi NNE 8.1 mph - N/A   Mostly Cloudy
10:30 AM 71.6 °F 68.0 °F 88% 29.95 in 6.2 mi North 8.1 mph - N/A   Mostly Cloudy
11:00 AM 71.6 °F 68.0 °F 88% 29.95 in 6.2 mi NNE 6.9 mph - N/A   Mostly Cloudy
11:30 AM 71.6 °F 68.0 °F 88% 29.95 in 6.2 mi NNE 4.6 mph - N/A   Mostly Cloudy
12:00 PM 71.6 °F 68.0 °F 88% 29.92 in 6.2 mi NNE 5.8 mph - N/A   Mostly Cloudy
12:30 PM 73.4 °F 68.0 °F 83% 29.92 in 6.2 mi NNE 5.8 mph - N/A   Mostly Cloudy
1:00 PM 73.4 °F 68.0 °F 83% 29.89 in 6.2 mi NE 5.8 mph - N/A   Mostly Cloudy
1:30 PM 73.4 °F 69.8 °F 88% 29.89 in 6.2 mi East 6.9 mph - N/A   Mostly Cloudy
1:44 PM 73.4 °F 69.8 °F 88% 29.89 in 6.2 mi ENE 5.8 mph - N/A   Scattered Clouds
2:00 PM 73.4 °F 69.8 °F 88% 29.89 in 5.6 mi NE 5.8 mph - N/A   Scattered Clouds
2:14 PM 73.4 °F 69.8 °F 88% 29.89 in 5.6 mi NE 4.6 mph - N/A   Mostly Cloudy
2:30 PM 73.4 °F 69.8 °F 88% 29.89 in 5.6 mi NE 3.5 mph - N/A   Mostly Cloudy
2:48 PM 73.4 °F 69.8 °F 88% 29.89 in 5.6 mi NNE 3.5 mph - N/A   Mostly Cloudy
3:00 PM 73.4 °F 69.8 °F 88% 29.89 in 5.0 mi East 4.6 mph - N/A   Mostly Cloudy
3:30 PM 73.4 °F 69.8 °F 88% 29.89 in 5.0 mi East 5.8 mph - N/A   Partly Cloudy
4:00 PM 73.4 °F 69.8 °F 88% 29.86 in 5.0 mi East 5.8 mph - N/A   Scattered Clouds
4:30 PM 73.4 °F 69.8 °F 88% 29.86 in 5.0 mi Variable 2.3 mph - N/A   Scattered Clouds
5:00 PM 73.4 °F 69.8 °F 88% 29.86 in 4.3 mi Variable 2.3 mph - N/A   Scattered Clouds
5:30 PM 73.4 °F 69.8 °F 88% 29.89 in 4.3 mi East 5.8 mph - N/A   Scattered Clouds
6:00 PM 73.4 °F 69.8 °F 88% 29.86 in 5.0 mi SE 5.8 mph - N/A   Partly Cloudy
6:30 PM 73.4 °F 69.8 °F 88% 29.86 in 5.6 mi SSE 8.1 mph - N/A   Mostly Cloudy
7:00 PM 73.4 °F 69.8 °F 88% 29.89 in 5.0 mi SE 8.1 mph - N/A   Mostly Cloudy
7:30 PM 75.2 °F 69.8 °F 83% 29.89 in 5.0 mi South 8.1 mph - N/A   Mostly Cloudy
7:44 PM 75.2 °F 69.8 °F 83% 29.89 in 5.6 mi South 8.1 mph - N/A   Mostly Cloudy
8:00 PM 75.2 °F 69.8 °F 83% 29.89 in 5.0 mi SSE 9.2 mph - N/A   Mostly Cloudy
8:30 PM 75.2 °F 71.6 °F 89% 29.89 in 5.0 mi SSE 11.5 mph - N/A   Mostly Cloudy
9:00 PM 75.2 °F 71.6 °F 89% 29.89 in 5.0 mi SSE 9.2 mph - N/A   Mostly Cloudy
9:30 PM 75.2 °F 71.6 °F 89% 29.89 in 5.0 mi SSE 11.5 mph - N/A   Mostly Cloudy
10:00 PM 75.2 °F 71.6 °F 89% 29.89 in 6.2 mi SSE 11.5 mph - N/A   Mostly Cloudy
10:30 PM 75.2 °F 71.6 °F 89% 29.86 in 6.2 mi SSE 11.5 mph - N/A   Mostly Cloudy
11:00 PM 73.4 °F 71.6 °F 94% 29.86 in 6.2 mi South 9.2 mph - N/A   Mostly Cloudy
11:30 PM 75.2 °F 71.6 °F 89% 29.86 in 6.2 mi SSW 10.4 mph - N/A   Mostly Cloudy